Creek Data

    Home     View Charts     View Raw Data     Messages

ID Distance Battery Voltage Battery Current Internal Temp Internal Humidity External Temp Solar Input rssi snr Time Stamp Record
35391 0.0 3.95 -5 34 39 38 0 -76 8 03/19/2025 03:00 AM 17153
35390 0.0 4.01 -5 34 39 38 0 -77 8 03/19/2025 02:45 AM 17152
35389 0.0 4.01 -5 34 39 38 0 -77 9 03/19/2025 02:30 AM 17151
35388 15.1 3.96 -5 34 39 37 0 -77 8 03/19/2025 02:15 AM 17150
35387 0.0 3.96 -5 35 40 37 0.1 -78 8 03/19/2025 02:00 AM 17149
35386 0.0 3.96 -5 35 40 37 0 -77 8 03/19/2025 01:45 AM 17148
35385 0.0 3.96 -5 36 40 38 0 -77 8 03/19/2025 01:30 AM 17147
35384 0.0 4.02 -5 36 40 37 0 -77 8 03/19/2025 01:15 AM 17146
35383 0.0 3.96 -5 38 39 38 0.1 -77 8 03/19/2025 01:00 AM 17145
35382 0.0 3.97 -5 38 39 41 0 -77 9 03/19/2025 12:45 AM 17144
35381 15.1 4.02 -5 38 39 39 0 -78 8 03/19/2025 12:30 AM 17143
35380 15.1 3.97 -5 39 39 40 0 -77 8 03/19/2025 12:15 AM 17142
35379 15.1 3.97 -5 40 39 41 0 -77 9 03/19/2025 12:00 AM 17141
35378 15.1 4.02 -5 41 39 44 0 -75 8 03/18/2025 11:45 PM 17140
35377 15.1 3.97 -5 40 40 44 0 -77 8 03/18/2025 11:30 PM 17139
35376 15.1 3.97 -5 41 40 42 0 -76 9 03/18/2025 11:15 PM 17138
35375 0.0 4.03 -5 43 39 47 0 -76 8 03/18/2025 11:00 PM 17137
35374 0.0 4.03 -5 44 39 47 0 -77 8 03/18/2025 10:45 PM 17136
35373 0.0 3.97 -5 44 39 47 0 -77 8 03/18/2025 10:30 PM 17135
35372 15.1 4.03 -5 43 40 48 0 -78 7 03/18/2025 10:15 PM 17134
35371 15.1 3.98 -5 43 40 45 0.1 -77 8 03/18/2025 10:00 PM 17133
35370 15.1 3.98 -5 44 40 47 0 -77 8 03/18/2025 09:45 PM 17132
35369 15.1 4.03 -5 43 41 45 0.1 -77 8 03/18/2025 09:30 PM 17131
35368 0.0 3.98 -5 45 41 47 0 -77 8 03/18/2025 09:15 PM 17130
35367 15.1 4.03 -5 46 41 48 0 -77 7 03/18/2025 09:00 PM 17129